EW7966 Weather Reports


time (UTC)temp
F
wind
direction
speed
knots
gust
knots
rain 1hr
in
rain 24hr
in
rain mn
in
humidity
%
barometer
mb
20260510032506 45 336 2.6 9.6 0.02 0.05 0.05 85 1020.7
20260510032008 45 355 2.6 16.5 0.04 0.05 0.05 84 1020.4
20260510031504 45 44 7.8 21.7 0.05 0.05 0.05 83 1010.2
20260510031005 45 355 9.6 21.7 0.05 0.05 0.05 82 1020.2
20260510030007 46 337 7.0 13.9 0.05 0.05 0.05 81 1019.8
20260510030004 46 337 6.1 13.9 0.05 0.05 0.05 81 1009.7
20260510025506 46 355 5.2 12.2 0.05 0.05 0.05 81 1019.3
20260510024505 47 346 4.3 12.2 0.05 0.05 0.05 81 1019.0
20260510024007 47 329 4.3 12.2 0.05 0.05 0.05 81 1018.8
20260510023506 47 341 4.3 20.9 0.05 0.05 0.05 80 1018.3
20260510023007 48 338 5.2 22.6 0.05 0.05 0.05 76 1018.1
20260510023003 48 338 4.3 22.6 0.05 0.05 0.05 76 1007.9
20260510022505 49 9 7.0 18.2 0.02 0.02 0.02 73 1017.5
20260510022005 52 336 10.4 18.2 0.00 0.00 0.00 67 1017.0
20260510021505 54 321 5.2 19.1 0.00 0.00 0.00 56 1016.9
20260510021503 54 321 5.2 19.1 0.00 0.00 0.00 56 1006.7
20260510020500 56 319 8.7 23.5 0.00 0.00 0.00 51 1015.9
20260510020007 57 61 0.9 1.7 0.00 0.00 0.00 50 1015.1
20260510020004 57 61 0.0 1.7 0.00 0.00 0.00 50 1004.8
20260510015505 58 98 0.0 1.7 0.00 0.00 0.00 49 1014.6
20260510015006 58 98 0.9 2.6 0.00 0.00 0.00 48 1014.5
20260510014505 59 98 1.7 3.5 0.00 0.00 0.00 47 1014.5
20260510014503 59 98 0.9 3.5 0.00 0.00 0.00 47 1004.2
20260510014005 59 98 2.6 3.5 0.00 0.00 0.00 46 1014.4
20260510013506 59 98 2.6 3.5 0.00 0.00 0.00 45 1014.4
20260510013010 60 98 2.6 3.5 0.00 0.00 0.00 44 1004.0
20260510012007 60 94 2.6 5.2 0.00 0.00 0.00 43 1014.2
20260510011511 61 80 1.7 7.0 0.00 0.00 0.00 42 1004.0
20260510011505 61 80 2.6 7.0 0.00 0.00 0.00 42 1014.2
20260510011006 61 83 2.6 7.0 0.00 0.00 0.00 41 1014.1
20260510010505 61 88 4.3 7.8 0.00 0.00 0.00 40 1014.0
20260510010010 62 83 5.2 9.6 0.00 0.00 0.00 39 1003.6
20260510010006 62 83 5.2 9.6 0.00 0.00 0.00 39 1013.8
20260510005459 62 103 6.1 9.6 0.00 0.00 0.00 38 1013.7
20260510005005 63 91 7.0 9.6 0.00 0.00 0.00 36 1013.6
20260510004505 63 72 3.5 7.0 0.00 0.00 0.00 35 1003.4
20260510004007 64 61 3.5 6.1 0.00 0.00 0.00 33 1013.4
20260510003505 64 56 3.5 6.1 0.00 0.00 0.00 33 1013.4
20260510003006 64 59 3.5 5.2 0.00 0.00 0.00 32 1013.3
20260510002505 64 57 3.5 5.2 0.00 0.00 0.00 32 1013.2
20260510002006 65 69 4.3 5.2 0.00 0.00 0.00 30 1013.2
20260510001506 65 15 2.6 3.5 0.00 0.00 0.00 30 1013.3
20260510001005 65 15 0.9 2.6 0.00 0.00 0.00 30 1013.3
20260510000505 65 15 0.9 3.5 0.00 0.00 0.00 27 1013.3
20260510000004 65 15 0.0 4.3 0.00 0.00 0.00 28 1003.3
20260509235504 65 114 1.7 3.5 0.00 0.00 0.00 29 1013.3
20260509234505 65 114 0.0 7.8 0.00 0.00 0.00 28 1013.3
20260509234503 65 114 0.0 7.8 0.00 0.00 0.00 28 1003.4
20260509233505 65 28 0.0 2.6 0.00 0.00 0.00 29 1013.3
20260509233006 65 28 0.9 4.3 0.00 0.00 0.00 29 1013.3
20260509233004 65 28 0.9 4.3 0.00 0.00 0.00 29 1003.4
20260509232504 65 28 1.7 9.6 0.00 0.00 0.00 29 1013.2
20260509232006 65 342 5.2 10.4 0.00 0.00 0.00 29 1013.1
20260509231505 65 320 5.2 11.3 0.00 0.00 0.00 23 1013.3
20260509231007 65 314 7.8 11.3 0.00 0.00 0.00 23 1013.5
20260509230506 66 316 5.2 9.6 0.00 0.00 0.00 22 1013.3
20260509230005 66 315 4.3 7.0 0.00 0.00 0.00 25 1003.8
20260509225505 66 317 2.6 5.2 0.00 0.00 0.00 24 1013.4
20260509225007 66 15 1.7 7.8 0.00 0.00 0.00 25 1013.2
20260509224505 67 15 2.6 10.4 0.00 0.00 0.00 27 1013.1
20260509224503 67 15 1.7 10.4 0.00 0.00 0.00 27 1003.4
20260509224006 67 24 7.8 10.4 0.00 0.00 0.00 26 1013.1
20260509223504 67 355 4.3 10.4 0.00 0.00 0.00 27 1012.9
20260509223006 66 26 4.3 9.6 0.00 0.00 0.00 27 1012.9
20260509223003 66 26 4.3 9.6 0.00 0.00 0.00 27 1003.1
20260509222505 66 30 7.0 9.6 0.00 0.00 0.00 26 1013.0
20260509222005 66 355 4.3 8.7 0.00 0.00 0.00 27 1012.9
20260509221506 66 35 3.5 6.1 0.00 0.00 0.00 26 1013.0
20260509221504 66 35 2.6 6.1 0.00 0.00 0.00 26 1003.2
20260509221005 66 55 4.3 11.3 0.00 0.00 0.00 27 1012.9
20260509220506 67 9 6.1 11.3 0.00 0.00 0.00 25 1013.0
20260509220004 67 40 7.0 12.2 0.00 0.00 0.00 26 1003.0
20260509215505 68 44 8.7 12.2 0.00 0.00 0.00 25 1012.8
20260509215006 67 5 2.6 10.4 0.00 0.00 0.00 28 1013.1
20260509214505 67 288 6.1 12.2 0.00 0.00 0.00 24 1013.1
20260509214005 66 262 7.0 13.9 0.00 0.00 0.00 27 1013.2
20260509213506 66 308 8.7 20.0 0.00 0.00 0.00 24 1013.2
20260509213007 66 275 9.6 20.0 0.00 0.00 0.00 24 1013.2
20260509213003 66 275 9.6 20.0 0.00 0.00 0.00 24 1003.5
20260509212505 66 26 4.3 14.8 0.00 0.00 0.00 23 1013.3
20260509212006 67 27 8.7 12.2 0.00 0.00 0.00 27 1013.5
20260509211505 67 355 3.5 11.3 0.00 0.00 0.00 29 1013.6
20260509211503 67 355 2.6 11.3 0.00 0.00 0.00 29 1003.8
20260509210505 69 13 5.2 11.3 0.00 0.00 0.00 28 1013.5
20260509210009 68 311 4.3 9.6 0.00 0.00 0.00 28 1013.3
20260509210004 68 311 3.5 9.6 0.00 0.00 0.00 28 1003.6
20260509205505 68 47 3.5 9.6 0.00 0.00 0.00 25 1013.4
20260509205006 69 19 4.3 9.6 0.00 0.00 0.00 26 1013.4
20260509204506 69 351 3.5 8.7 0.00 0.00 0.00 26 1013.3
20260509204503 69 351 2.6 8.7 0.00 0.00 0.00 26 1003.6
20260509204007 69 360 4.3 13.9 0.00 0.00 0.00 29 1013.3
20260509203505 69 237 6.1 13.9 0.00 0.00 0.00 26 1013.5
20260509203006 69 22 7.0 11.3 0.00 0.00 0.00 28 1013.5
20260509203003 69 22 7.0 11.3 0.00 0.00 0.00 28 1003.9
20260509202505 68 11 6.1 16.5 0.00 0.00 0.00 27 1013.5
20260509202007 68 43 11.3 16.5 0.00 0.00 0.00 28 1013.6
20260509201507 68 27 7.0 15.6 0.00 0.00 0.00 28 1013.6
20260509201503 68 27 7.0 15.6 0.00 0.00 0.00 28 1004.0
20260509201008 69 309 4.3 16.5 0.00 0.00 0.00 26 1013.6
20260509200505 68 5 9.6 16.5 0.00 0.00 0.00 29 1013.7
20260509200007 69 21 7.0 16.5 0.00 0.00 0.00 26 1013.7
20260509200004 69 21 7.0 16.5 0.00 0.00 0.00 26 1004.1
20260509195504 69 26 6.1 16.5 0.00 0.00 0.00 24 1013.8
20260509195006 69 350 6.1 14.8 0.00 0.00 0.00 28 1013.8
20260509194505 69 346 4.3 14.8 0.00 0.00 0.00 25 1013.8
20260509194007 69 347 6.1 11.3 0.00 0.00 0.00 25 1013.7
20260509193505 69 28 4.3 9.6 0.00 0.00 0.00 25 1013.6
20260509193006 69 324 3.5 14.8 0.00 0.00 0.00 23 1013.8
20260509193003 69 324 3.5 14.8 0.00 0.00 0.00 23 1004.3
20260509192505 69 317 5.2 14.8 0.00 0.00 0.00 26 1013.7
20260509191505 68 351 6.1 14.8 0.00 0.00 0.00 29 1013.8
20260509191006 68 23 7.0 11.3 0.00 0.00 0.00 26 1013.9
20260509190504 67 32 3.5 11.3 0.00 0.00 0.00 30 1013.9
20260509190009 67 34 7.8 13.0 0.00 0.00 0.00 26 1013.9
20260509190006 67 34 7.0 13.0 0.00 0.00 0.00 26 1004.7
20260509185504 67 25 6.1 11.3 0.00 0.00 0.00 29 1013.9
20260509185005 68 31 4.3 11.3 0.00 0.00 0.00 28 1013.9
20260509184503 68 351 5.2 10.4 0.00 0.00 0.00 29 1004.8
20260509184006 68 334 4.3 13.9 0.00 0.00 0.00 32 1014.0
20260509183505 68 19 6.1 14.8 0.00 0.00 0.00 30 1013.9
20260509183011 68 349 7.8 14.8 0.00 0.00 0.00 20 1004.8
20260509183006 68 349 7.8 14.8 0.00 0.00 0.00 20 1013.9
20260509182505 68 347 6.1 11.3 0.00 0.00 0.00 22 1014.0
20260509182005 68 300 5.2 10.4 0.00 0.00 0.00 23 1014.1
20260509181504 67 28 2.6 13.9 0.00 0.00 0.00 22 1014.0
20260509181006 67 286 8.7 13.9 0.00 0.00 0.00 21 1014.2
20260509180007 68 324 4.3 9.6 0.00 0.00 0.00 22 1014.2
20260509180005 68 324 4.3 9.6 0.00 0.00 0.00 22 1005.1
20260509175506 68 355 3.5 11.3 0.00 0.00 0.00 23 1014.0
20260509175006 68 341 5.2 12.2 0.00 0.00 0.00 23 1014.1
20260509174506 68 329 4.3 12.2 0.00 0.00 0.00 25 1014.1
20260509174005 67 360 5.2 13.0 0.00 0.00 0.00 24 1014.1
20260509173512 67 331 7.0 13.0 0.00 0.00 0.00 24 1014.2
20260509173003 67 336 4.3 12.2 0.00 0.00 0.00 24 1005.4
20260509172506 67 302 6.1 11.3 0.00 0.00 0.00 25 1014.3
20260509172006 67 301 6.1 13.0 0.00 0.00 0.00 21 1014.3
20260509171505 66 319 7.0 13.0 0.00 0.00 0.00 27 1014.3
20260509171502 66 319 7.0 13.0 0.00 0.00 0.00 27 1005.5
20260509171006 67 304 8.7 12.2 0.00 0.00 0.00 22 1014.3
20260509170506 66 355 3.5 10.4 0.00 0.00 0.00 27 1014.2
20260509170007 66 337 4.3 12.2 0.00 0.00 0.00 23 1014.1
20260509170004 66 337 3.5 12.2 0.00 0.00 0.00 23 1005.4
20260509165505 66 309 6.1 12.2 0.00 0.00 0.00 23 1014.1
20260509165006 66 288 7.0 11.3 0.00 0.00 0.00 25 1014.1
20260509164505 65 296 4.3 13.0 0.00 0.00 0.00 26 1014.2
20260509164006 65 322 8.7 13.0 0.00 0.00 0.00 24 1014.2
20260509163504 66 305 6.1 9.6 0.00 0.00 0.00 25 1014.1
20260509163003 65 5 2.6 8.7 0.00 0.00 0.00 27 1005.4
20260509162506 65 348 3.5 9.6 0.00 0.00 0.00 28 1014.0
20260509162000 64 327 3.5 13.0 0.00 0.00 0.00 28 1014.0
20260509161505 65 327 7.0 13.0 0.00 0.00 0.00 26 1014.1
20260509161503 65 327 7.0 13.0 0.00 0.00 0.00 26 1005.4
20260509161006 64 301 6.1 13.0 0.00 0.00 0.00 26 1014.0
20260509160505 63 338 5.2 15.6 0.00 0.00 0.00 27 1013.9
20260509160007 63 292 7.0 15.6 0.00 0.00 0.00 26 1014.0
20260509160004 63 292 6.1 15.6 0.00 0.00 0.00 26 1005.3
20260509155505 63 311 7.0 15.6 0.00 0.00 0.00 26 1014.0
20260509155005 63 283 11.3 15.6 0.00 0.00 0.00 27 1014.0
20260509154505 62 305 9.6 18.2 0.00 0.00 0.00 28 1013.9
20260509154503 62 305 9.6 18.2 0.00 0.00 0.00 28 1005.3
20260509154006 62 319 10.4 18.2 0.00 0.00 0.00 26 1014.0
20260509153011 62 308 12.2 17.4 0.00 0.00 0.00 27 1005.3
20260509152505 62 292 11.3 17.4 0.00 0.00 0.00 27 1013.9
20260509152006 61 288 9.6 17.4 0.00 0.00 0.00 30 1014.0
20260509151557 61 294 10.4 16.5 0.00 0.00 0.00 32 1005.4
20260509151508 61 293 10.4 16.5 0.00 0.00 0.00 30 1014.0
20260509151504 61 316 9.6 16.5 0.00 0.00 0.00 30 1005.4
20260509151006 61 279 10.4 16.5 0.00 0.00 0.00 31 1014.0
20260509150506 60 301 11.3 16.5 0.00 0.00 0.00 31 1014.0
20260509150007 60 318 12.2 16.5 0.00 0.00 0.00 31 1014.0
20260509150005 60 318 11.3 16.5 0.00 0.00 0.00 31 1005.6
20260509145504 60 281 11.3 15.6 0.00 0.00 0.00 33 1014.0
20260509145006 60 292 7.8 13.9 0.00 0.00 0.00 37 1014.0
20260509144506 59 294 7.0 11.3 0.00 0.00 0.00 38 1014.1
20260509144503 59 294 6.1 11.3 0.00 0.00 0.00 38 1005.6
20260509144006 58 280 3.5 8.7 0.00 0.00 0.00 42 1014.1
20260509143505 58 294 3.5 9.6 0.00 0.00 0.00 40 1014.1
20260509143007 57 281 6.1 9.6 0.00 0.00 0.00 43 1014.2
20260509143004 57 281 5.2 9.6 0.00 0.00 0.00 43 1005.7
20260509142506 56 294 4.3 8.7 0.00 0.00 0.00 46 1014.1
20260509141506 53 293 2.6 5.2 0.00 0.00 0.00 55 1014.2
20260509141504 53 293 1.7 5.2 0.00 0.00 0.00 55 1005.7
20260509141005 52 250 0.9 3.5 0.00 0.00 0.00 57 1014.2
20260509140505 52 250 1.7 3.5 0.00 0.00 0.00 56 1014.2
20260509140003 53 250 1.7 5.2 0.00 0.00 0.00 56 1005.7
20260509135505 52 255 2.6 4.3 0.00 0.00 0.00 55 1014.0
20260509135006 52 271 2.6 4.3 0.00 0.00 0.00 57 1014.0
20260509134505 52 254 1.7 6.1 0.00 0.00 0.00 59 1013.9
20260509134503 52 254 1.7 6.1 0.00 0.00 0.00 59 1005.5
20260509134006 52 246 2.6 6.1 0.00 0.00 0.00 57 1013.9
20260509133505 51 257 2.6 7.0 0.00 0.00 0.00 58 1014.0
20260509133006 51 232 2.6 7.0 0.00 0.00 0.00 58 1013.9
20260509132504 51 269 2.6 6.1 0.00 0.00 0.00 59 1013.6
20260509131505 51 265 3.5 7.0 0.00 0.00 0.00 59 1013.6
20260509131007 51 237 3.5 7.0 0.00 0.00 0.00 61 1013.6
20260509130009 50 254 2.6 8.7 0.00 0.00 0.00 64 1005.6
20260509130006 50 254 3.5 8.7 0.00 0.00 0.00 64 1013.6
20260509125505 49 240 2.6 7.0 0.00 0.00 0.00 65 1013.5
20260509125005 48 234 3.5 7.0 0.00 0.00 0.00 66 1013.4
20260509124503 47 211 1.7 5.2 0.00 0.00 0.00 67 1005.4
20260509124006 46 225 2.6 6.1 0.00 0.00 0.00 68 1013.3
20260509123504 46 196 3.5 6.1 0.00 0.00 0.00 68 1013.3
20260509123006 46 217 1.7 6.1 0.00 0.00 0.00 68 1013.2
20260509123003 46 217 1.7 6.1 0.00 0.00 0.00 68 1005.2
20260509122505 46 218 2.6 6.1 0.00 0.00 0.00 68 1013.2
20260509122006 45 220 2.6 5.2 0.00 0.00 0.00 68 1013.1
20260509121505 45 209 2.6 5.2 0.00 0.00 0.00 67 1013.1
20260509121033 45 199 3.5 5.2 0.00 0.00 0.00 67 1013.1
20260509120505 45 207 2.6 5.2 0.00 0.00 0.00 67 1013.0
20260509120012 45 214 1.7 6.1 0.00 0.00 0.00 67 1005.0
20260509120008 45 214 2.6 6.1 0.00 0.00 0.00 67 1012.9
20260509115504 46 191 2.6 6.1 0.00 0.00 0.00 66 1012.9
20260509114505 46 188 2.6 5.2 0.00 0.00 0.00 66 1012.7
20260509114503 46 188 1.7 5.2 0.00 0.00 0.00 66 1004.9
20260509113505 46 222 2.6 6.1 0.00 0.00 0.00 66 1012.8
20260509113006 46 206 2.6 5.2 0.00 0.00 0.00 66 1012.7
20260509113004 46 206 1.7 5.2 0.00 0.00 0.00 66 1004.8
20260509112005 46 222 2.6 6.1 0.00 0.00 0.00 65 1012.6
20260509111505 46 213 2.6 7.0 0.00 0.00 0.00 65 1012.6
20260509111503 46 213 2.6 7.0 0.00 0.00 0.00 65 1004.9
20260509111005 46 211 3.5 7.0 0.00 0.00 0.00 65 1012.6
20260509110506 46 200 3.5 6.1 0.00 0.00 0.00 65 1012.6
20260509110006 46 246 2.6 6.1 0.00 0.00 0.00 65 1012.7
20260509110003 46 246 2.6 6.1 0.00 0.00 0.00 65 1005.1
20260509105505 46 190 3.5 7.0 0.00 0.00 0.00 65 1012.8
20260509105000 46 205 3.5 7.0 0.00 0.00 0.00 64 1012.8
20260509104505 47 196 2.6 5.2 0.00 0.00 0.00 64 1012.8
20260509104503 47 196 2.6 5.2 0.00 0.00 0.00 64 1005.1
20260509104005 46 202 2.6 4.3 0.00 0.00 0.00 64 1012.7
20260509103505 46 190 1.7 3.5 0.00 0.00 0.00 64 1012.7
20260509103005 46 221 0.9 3.5 0.00 0.00 0.00 64 1012.7
20260509103003 46 221 0.9 3.5 0.00 0.00 0.00 64 1005.1
20260509102505 47 221 0.0 3.5 0.00 0.00 0.00 64 1012.7
20260509102006 47 221 1.7 3.5 0.00 0.00 0.00 63 1012.7
20260509101502 47 221 0.0 4.3 0.00 0.00 0.00 62 1005.1
20260509101006 48 256 0.9 6.1 0.00 0.00 0.00 61 1012.7
20260509100504 48 256 1.7 7.0 0.00 0.00 0.00 60 1012.7
20260509100008 49 237 2.6 8.7 0.00 0.00 0.00 60 1012.7
20260509100005 49 237 2.6 8.7 0.00 0.00 0.00 60 1005.1
20260509095505 49 187 5.2 8.7 0.00 0.00 0.00 59 1012.7
20260509095005 49 188 2.6 8.7 0.00 0.00 0.00 59 1012.6
20260509094505 49 203 3.5 11.3 0.00 0.00 0.00 59 1004.9
20260509093505 49 171 6.1 11.3 0.00 0.00 0.00 59 1012.5
20260509093004 49 178 5.2 11.3 0.00 0.00 0.00 59 1004.9
20260509092505 49 217 5.2 9.6 0.00 0.00 0.00 60 1012.5
20260509092005 49 181 7.0 12.2 0.00 0.00 0.00 60 1012.5
20260509091506 49 175 5.2 10.4 0.00 0.00 0.00 60 1012.5
20260509091504 49 175 4.3 10.4 0.00 0.00 0.00 60 1004.9
20260509091005 49 205 5.2 12.2 0.00 0.00 0.00 60 1012.6
20260509090505 50 227 4.3 12.2 0.00 0.00 0.00 59 1012.6
20260509090004 50 173 3.5 9.6 0.00 0.00 0.00 59 1005.1
20260509085504 50 240 3.5 12.2 0.00 0.00 0.00 58 1012.6
20260509085005 50 192 6.1 12.2 0.00 0.00 0.00 58 1012.6
20260509084504 50 258 5.2 13.0 0.00 0.00 0.00 57 1012.7
20260509084005 50 195 5.2 10.4 0.00 0.00 0.00 57 1012.7
20260509083504 50 205 6.1 13.0 0.00 0.00 0.00 57 1012.5
20260509083007 50 235 6.1 12.2 0.00 0.00 0.00 57 1012.6
20260509083003 50 235 6.1 12.2 0.00 0.00 0.00 57 1005.1
20260509082505 50 155 5.2 9.6 0.00 0.00 0.00 57 1012.6
20260509082006 51 219 5.2 13.0 0.00 0.00 0.00 57 1012.7
20260509081505 51 170 4.3 13.0 0.00 0.00 0.00 57 1012.7
20260509081503 51 170 4.3 13.0 0.00 0.00 0.00 57 1005.4
20260509081006 51 220 6.1 13.9 0.00 0.00 0.00 56 1012.7
20260509080007 51 196 5.2 12.2 0.00 0.00 0.00 56 1012.7
20260509080004 51 196 4.3 12.2 0.00 0.00 0.00 56 1005.5
20260509075505 51 199 5.2 16.5 0.00 0.00 0.00 57 1012.7
20260509075005 50 190 7.0 16.5 0.00 0.00 0.00 57 1012.7
20260509074505 50 191 5.2 12.2 0.00 0.00 0.00 58 1012.8
20260509074503 50 191 4.3 12.2 0.00 0.00 0.00 58 1005.6
20260509074006 50 207 6.1 11.3 0.00 0.00 0.00 58 1012.9
20260509073505 50 219 6.1 9.6 0.00 0.00 0.00 59 1013.0
20260509073003 49 166 5.2 11.3 0.00 0.00 0.00 60 1005.8
20260509072005 48 182 3.5 6.1 0.00 0.00 0.00 62 1013.2
20260509071506 48 169 2.6 5.2 0.00 0.00 0.00 62 1013.3
20260509071503 48 169 2.6 5.2 0.00 0.00 0.00 62 1006.0
20260509071002 49 171 1.7 6.1 0.00 0.00 0.00 62 1013.5
20260509070505 49 172 3.5 7.8 0.00 0.00 0.00 60 1013.5
20260509070004 49 187 4.3 7.8 0.00 0.00 0.00 60 1006.3
20260509065006 50 184 5.2 9.6 0.00 0.00 0.00 58 1013.6
20260509064505 50 164 6.1 8.7 0.00 0.00 0.00 57 1013.8
20260509064503 50 164 5.2 8.7 0.00 0.00 0.00 57 1006.5
20260509064006 51 178 5.2 8.7 0.00 0.00 0.00 57 1013.8
20260509063505 51 165 5.2 9.6 0.00 0.00 0.00 56 1013.8
20260509063007 51 171 7.0 8.7 0.00 0.00 0.00 55 1013.9
20260509063002 51 171 7.0 8.7 0.00 0.00 0.00 55 1006.6
20260509062006 52 164 7.8 11.3 0.00 0.00 0.00 54 1014.0
20260509061504 52 170 6.1 13.0 0.00 0.00 0.00 54 1014.1
20260509061502 52 170 6.1 13.0 0.00 0.00 0.00 54 1006.8
20260509061005 52 178 6.1 12.2 0.00 0.00 0.00 54 1014.2
20260509060058 52 176 7.0 13.0 0.00 0.00 0.00 55 1007.0
20260509060000 52 167 7.0 13.0 0.00 0.00 0.00 55 1014.3
20260509055506 52 175 8.7 13.0 0.00 0.00 0.00 55 1014.3
20260509055007 52 171 7.0 9.6 0.00 0.00 0.00 55 1014.4
20260509054504 52 167 5.2 9.6 0.00 0.00 0.00 55 1007.3
20260509053459 52 184 4.3 9.6 0.00 0.00 0.00 56 1014.6
20260509053010 52 182 7.0 9.6 0.00 0.00 0.00 56 1007.5
20260509053006 52 182 7.0 9.6 0.00 0.00 0.00 56 1014.8
20260509052505 52 159 7.0 9.6 0.00 0.00 0.00 57 1014.8
20260509052007 51 171 7.0 9.6 0.00 0.00 0.00 58 1014.7
20260509051505 51 191 6.1 8.7 0.00 0.00 0.00 60 1014.7
20260509051006 50 161 4.3 6.1 0.00 0.00 0.00 62 1014.7
20260509050506 50 157 4.3 7.0 0.00 0.00 0.00 65 1014.8
20260509050006 48 167 3.5 5.2 0.00 0.00 0.00 68 1007.6
20260509045505 48 150 0.9 4.3 0.00 0.00 0.00 71 1015.0
20260509045007 48 150 1.7 3.5 0.00 0.00 0.00 71 1015.0
20260509044505 47 150 1.7 3.5 0.00 0.00 0.00 71 1015.0
20260509043007 47 205 1.7 3.5 0.00 0.00 0.00 71 1015.1
20260509043005 47 205 0.9 3.5 0.00 0.00 0.00 71 1007.9
20260509042506 47 178 0.9 3.5 0.00 0.00 0.00 70 1015.0
20260509042006 48 178 2.6 3.5 0.00 0.00 0.00 68 1015.1
20260509041506 49 178 0.9 2.6 0.00 0.00 0.00 67 1015.2
20260509041504 49 178 0.9 2.6 0.00 0.00 0.00 67 1007.9
20260509041007 49 178 1.7 4.3 0.00 0.00 0.00 65 1015.1
20260509040505 49 178 2.6 4.3 0.00 0.00 0.00 65 1015.1
20260509040007 49 175 3.5 4.3 0.00 0.00 0.00 66 1015.0
20260509040005 49 175 2.6 4.3 0.00 0.00 0.00 66 1007.7
20260509034505 48 160 0.0 0.0 0.00 0.00 0.00 68 1015.1
20260509034503 48 160 0.0 0.0 0.00 0.00 0.00 68 1007.8
20260509034007 48 160 0.0 0.0 0.00 0.00 0.00 68 1014.9
20260509033506 49 160 0.0 0.9 0.00 0.00 0.00 67 1014.8
20260509033008 49 160 0.0 0.9 0.00 0.00 0.00 67 1007.6